TimeCST,TemperatureF,Dew PointF,Humidity,Sea Level PressureIn,VisibilityMPH,Wind Direction,Wind SpeedMPH,Gust SpeedMPH,PrecipitationIn,Events,Conditions,WindDirDegrees,DateUTC
12:52 AM,57.9,54.0,87,29.99,7.0,SSE,9.2,-,N/A,,Overcast,150,2012-12-01 06:52:00
1:52 AM,61.0,55.0,81,29.97,9.0,South,10.4,-,N/A,,Overcast,170,2012-12-01 07:52:00
2:52 AM,62.1,55.9,80,29.96,9.0,South,15.0,23.0,N/A,,Overcast,180,2012-12-01 08:52:00
3:52 AM,63.0,57.0,81,29.94,9.0,South,16.1,25.3,N/A,,Overcast,170,2012-12-01 09:52:00
4:52 AM,63.0,57.9,84,29.92,9.0,South,18.4,26.5,N/A,,Overcast,170,2012-12-01 10:52:00
5:52 AM,64.0,57.9,80,29.90,10.0,South,17.3,28.8,N/A,,Overcast,180,2012-12-01 11:52:00
6:52 AM,64.0,57.9,80,29.90,10.0,South,17.3,36.8,N/A,,Overcast,170,2012-12-01 12:52:00
7:52 AM,64.9,57.9,78,29.89,9.0,South,20.7,31.1,N/A,,Overcast,180,2012-12-01 13:52:00
8:52 AM,64.9,59.0,81,29.88,10.0,South,23.0,33.4,N/A,,Overcast,170,2012-12-01 14:52:00
9:52 AM,66.9,59.0,76,29.87,10.0,South,25.3,33.4,N/A,,Overcast,180,2012-12-01 15:52:00
10:52 AM,68.0,60.1,76,29.85,10.0,South,24.2,38.0,N/A,,Overcast,180,2012-12-01 16:52:00
11:52 AM,70.0,60.1,71,29.84,10.0,South,21.9,32.2,N/A,,Overcast,190,2012-12-01 17:52:00
12:23 PM,71.6,60.8,69,29.82,10.0,South,18.4,29.9,N/A,,Mostly Cloudy,180,2012-12-01 18:23:00
12:52 PM,73.0,59.0,61,29.79,10.0,South,21.9,34.5,N/A,,Scattered Clouds,190,2012-12-01 18:52:00
1:52 PM,75.0,57.9,55,29.78,10.0,South,25.3,34.5,N/A,,Mostly Cloudy,190,2012-12-01 19:52:00
2:52 PM,75.0,57.0,53,29.78,10.0,South,21.9,29.9,N/A,,Partly Cloudy,190,2012-12-01 20:52:00
3:52 PM,73.0,59.0,61,29.79,10.0,SSW,11.5,-,N/A,,Partly Cloudy,200,2012-12-01 21:52:00
4:52 PM,73.9,57.0,55,29.81,10.0,SSW,11.5,-,N/A,,Scattered Clouds,200,2012-12-01 22:52:00
5:52 PM,70.0,57.0,63,29.83,10.0,SSW,10.4,-,N/A,,Partly Cloudy,200,2012-12-01 23:52:00
6:52 PM,69.1,55.0,61,29.85,10.0,SSW,8.1,-,N/A,,Clear,210,2012-12-02 00:52:00
7:52 PM,64.9,54.0,68,29.87,10.0,South,8.1,-,N/A,,Clear,190,2012-12-02 01:52:00
8:52 PM,60.1,54.0,80,29.90,10.0,Calm,Calm,-,N/A,,Clear,0,2012-12-02 02:52:00
9:52 PM,60.1,50.0,69,29.91,10.0,NW,5.8,-,N/A,,Clear,310,2012-12-02 03:52:00
10:52 PM,59.0,48.0,67,29.92,10.0,Calm,Calm,-,N/A,,Clear,0,2012-12-02 04:52:00
11:52 PM,54.0,46.9,77,29.93,10.0,Calm,Calm,-,N/A,,Clear,0,2012-12-02 05:52:00